Location: Newark
(40.9833°N, 0.0333°W)
Time: 02:26:58
(UTC+00:00)

Transit 2A Rocket - Pass Details

Date: 03 November 2020
Orbit: 588 x 914 km, 66.7° (Epoch: 26 November)

Event Time Altitude Azimuth Distance (km) Brightness Sun altitude
Rises 18:39:49 0° 308° (NW) 3,151 8.9 -20.5°
Reaches altitude 10° 18:44:25 10° 270° (W) 2,124 8.5 -21.4°
Maximum altitude 18:45:18 11° 259° (W) 2,072 8.4 -21.5°
Drops below altitude 10° 18:46:11 10° 248° (WSW) 2,085 8.3 -21.7°
Sets 18:50:29 0° 208° (SSW) 2,908 8.4 -22.5°
